Weather in Quevedo

Ecuador     1°01′32″S   79°28′12″W
temp.,
°C
wind,
m/s
gust,
m/s
humid.,
%
clouds,
%
prec.,
mm/h
press.,
hPa
HPBL,
m
6 may, thu
thu601:00+23ssw129599 5.5 1014102
04:00+23s2497100 0.9 1012273
07:00+23ssw259699 1.2 1013260
10:00+25ssw338858 0.2 1014480
13:00+28wsw237354 0.9 1011959
16:00+28ssw237486 3.8 1009728
19:00+24ssw2490100 13.8 101282
22:00+23s2696100 9.1 1014363
7 may, fri
fri701:00+23s3596100 11.3 1013311
04:00+22sse0197100 6.9 1013133
07:00+22ssw2396100 10.4 1013190
10:00+25ssw338374 0.1 1014696
13:00+27ssw337463 0.4 1012936
16:00+28ssw227299 0.5 1009824
19:00+24s119166 4.2 101213
22:00+23w1194100 4.1 101467
8 may, sat
sat801:00+23ssw1294100 5.4 101390
04:00+22ssw249694 0.2 1012220
07:00+22ssw259599 0.3 1013275
10:00+25ssw227966 0.1 1014751
13:00+27sw227177 0.3 10111040
16:00+28sw116934 0.3 1009889
19:00+24ne2289100 0.2 101142
22:00+23ene2391100 0.2 101394
9 may, sun
sun901:00+23w1191100 0.3 101232
04:00+23sw2494100 0.6 1011244
07:00+22ssw249369 0.7 1012234
10:00+25ssw228176 0.0 1013660
13:00+28nne117261 0.3 1010920
16:00+28wnw117075 0.2 1007780
19:00+26wnw118284 0.3 100925
22:00+24nw249282 0.8 1011152
10 may, mon
mon1001:00+23w1294100 1.5 1010103
04:00+23sw2495100 0.4 1009288
07:00+22ssw3694100 0.8 1011317
10:00+24ssw348564 0.1 1012503
13:00+26sw337888 0.4 1009842
16:00+27sw237644 0.4 1007688
19:00+25s228845 2.1 100932
22:00+23nnw129495 2.4 101159